Time,TemperatureF,DewpointF,PressureIn,WindDirection,WindDirectionDegrees,WindSpeedMPH,WindSpeedGustMPH,Humidity,HourlyPrecipIn,Conditions,Clouds,dailyrainin,SoftwareType,DateUTC
2013-08-27 00:00:00,79.9,70.1,30.07,North,0,0.0,0.0,72,0.00,,,0.00,WUHU216HW,2013-08-27 05:00:00,
2013-08-27 00:06:00,79.7,69.9,30.07,North,0,0.0,0.0,72,0.00,,,0.00,WUHU216HW,2013-08-27 05:06:00,
2013-08-27 00:11:00,79.4,69.6,30.08,North,0,0.0,0.0,72,0.00,,,0.00,WUHU216HW,2013-08-27 05:11:00,
2013-08-27 00:16:00,79.2,69.8,30.08,North,0,0.0,0.0,73,0.00,,,0.00,WUHU216HW,2013-08-27 05:16:00,
2013-08-27 00:21:00,79.0,69.6,30.08,North,0,0.0,0.0,73,0.00,,,0.00,WUHU216HW,2013-08-27 05:21:00,
2013-08-27 00:26:00,79.0,70.0,30.08,North,0,0.0,0.0,74,0.00,,,0.00,WUHU216HW,2013-08-27 05:26:00,
2013-08-27 00:31:00,79.0,70.0,30.07,North,0,0.0,0.0,74,0.00,,,0.00,WUHU216HW,2013-08-27 05:31:00,
2013-08-27 00:36:00,79.0,70.4,30.07,North,0,0.0,0.0,75,0.00,,,0.00,WUHU216HW,2013-08-27 05:36:00,
2013-08-27 00:41:00,79.0,70.4,30.07,North,0,0.0,0.0,75,0.00,,,0.00,WUHU216HW,2013-08-27 05:41:00,
2013-08-27 00:46:00,79.0,70.4,30.07,North,0,0.0,0.0,75,0.00,,,0.00,WUHU216HW,2013-08-27 05:46:00,
2013-08-27 00:51:00,79.0,70.4,30.07,North,0,0.0,0.0,75,0.00,,,0.00,WUHU216HW,2013-08-27 05:51:00,
2013-08-27 00:56:00,78.8,70.2,30.07,North,0,0.0,0.0,75,0.00,,,0.00,WUHU216HW,2013-08-27 05:56:00,
2013-08-27 01:02:00,78.8,70.6,30.07,North,0,0.0,0.0,76,0.00,,,0.00,WUHU216HW,2013-08-27 06:02:00,
2013-08-27 01:07:00,78.5,70.3,30.07,North,0,0.0,0.0,76,0.00,,,0.00,WUHU216HW,2013-08-27 06:07:00,
2013-08-27 01:12:00,78.5,70.3,30.07,North,0,0.0,0.0,76,0.00,,,0.00,WUHU216HW,2013-08-27 06:12:00,
2013-08-27 01:17:00,78.3,70.5,30.07,North,0,0.0,0.0,77,0.00,,,0.00,WUHU216HW,2013-08-27 06:17:00,
2013-08-27 01:22:00,78.1,70.3,30.07,North,0,0.0,0.0,77,0.00,,,0.00,WUHU216HW,2013-08-27 06:22:00,
2013-08-27 01:27:00,78.1,70.3,30.06,North,0,0.0,0.0,77,0.00,,,0.00,WUHU216HW,2013-08-27 06:27:00,
2013-08-27 01:32:00,77.9,70.1,30.06,North,0,0.0,0.0,77,0.00,,,0.00,WUHU216HW,2013-08-27 06:32:00,
2013-08-27 01:37:00,77.6,70.1,30.06,North,0,0.0,0.0,78,0.00,,,0.00,WUHU216HW,2013-08-27 06:37:00,
2013-08-27 01:42:00,77.4,70.0,30.06,North,0,0.0,0.0,78,0.00,,,0.00,WUHU216HW,2013-08-27 06:42:00,
2013-08-27 01:47:00,77.2,69.9,30.06,North,0,0.0,0.0,78,0.00,,,0.00,WUHU216HW,2013-08-27 06:47:00,
2013-08-27 01:52:00,77.0,69.7,30.06,North,0,0.0,0.0,78,0.00,,,0.00,WUHU216HW,2013-08-27 06:52:00,
2013-08-27 01:57:00,77.0,70.0,30.06,North,0,0.0,0.0,79,0.00,,,0.00,WUHU216HW,2013-08-27 06:57:00,
2013-08-27 02:02:00,76.9,69.9,30.06,North,0,0.0,0.0,79,0.00,,,0.00,WUHU216HW,2013-08-27 07:02:00,
2013-08-27 02:07:00,76.7,69.7,30.06,North,0,0.0,0.0,79,0.00,,,0.00,WUHU216HW,2013-08-27 07:07:00,
2013-08-27 02:12:00,76.5,69.9,30.06,North,0,0.0,0.0,80,0.00,,,0.00,WUHU216HW,2013-08-27 07:12:00,
2013-08-27 02:17:00,76.3,69.8,30.05,North,0,0.0,0.0,80,0.00,,,0.00,WUHU216HW,2013-08-27 07:17:00,
2013-08-27 02:22:00,76.3,69.8,30.06,North,0,0.0,0.0,80,0.00,,,0.00,WUHU216HW,2013-08-27 07:22:00,
2013-08-27 02:28:00,76.3,69.8,30.05,North,0,0.0,0.0,80,0.00,,,0.00,WUHU216HW,2013-08-27 07:28:00,
2013-08-27 02:33:00,76.3,70.1,30.05,North,0,0.0,0.0,81,0.00,,,0.00,WUHU216HW,2013-08-27 07:33:00,
2013-08-27 02:38:00,76.5,70.3,30.05,North,0,0.0,0.0,81,0.00,,,0.00,WUHU216HW,2013-08-27 07:38:00,
2013-08-27 02:43:00,76.7,70.4,30.05,North,0,0.0,0.0,81,0.00,,,0.00,WUHU216HW,2013-08-27 07:43:00,
2013-08-27 02:48:00,76.9,70.6,30.05,North,0,0.0,0.0,81,0.00,,,0.00,WUHU216HW,2013-08-27 07:48:00,
2013-08-27 02:53:00,77.0,70.7,30.05,North,0,0.0,0.0,81,0.00,,,0.00,WUHU216HW,2013-08-27 07:53:00,
2013-08-27 02:58:00,77.0,70.7,30.05,North,0,0.0,0.0,81,0.00,,,0.00,WUHU216HW,2013-08-27 07:58:00,
2013-08-27 03:03:00,77.2,70.9,30.05,North,0,0.0,0.0,81,0.00,,,0.00,WUHU216HW,2013-08-27 08:03:00,
2013-08-27 03:08:00,77.2,70.9,30.05,North,0,0.0,0.0,81,0.00,,,0.00,WUHU216HW,2013-08-27 08:08:00,
2013-08-27 03:13:00,77.4,71.1,30.05,North,0,0.0,0.0,81,0.00,,,0.00,WUHU216HW,2013-08-27 08:13:00,
2013-08-27 03:18:00,77.4,71.1,30.05,North,0,0.0,0.0,81,0.00,,,0.00,WUHU216HW,2013-08-27 08:18:00,
2013-08-27 03:23:00,77.4,70.7,30.05,North,0,0.0,0.0,80,0.00,,,0.00,WUHU216HW,2013-08-27 08:23:00,
2013-08-27 03:28:00,77.6,70.9,30.05,North,0,0.0,0.0,80,0.00,,,0.00,WUHU216HW,2013-08-27 08:28:00,
2013-08-27 03:33:00,77.6,70.9,30.05,North,0,0.0,0.0,80,0.00,,,0.00,WUHU216HW,2013-08-27 08:33:00,
2013-08-27 03:38:00,77.4,70.7,30.06,North,0,0.0,0.0,80,0.00,,,0.00,WUHU216HW,2013-08-27 08:38:00,
2013-08-27 03:43:00,77.4,70.7,30.05,North,0,0.0,0.0,80,0.00,,,0.00,WUHU216HW,2013-08-27 08:43:00,
2013-08-27 03:48:00,77.2,70.6,30.05,North,0,0.0,0.0,80,0.00,,,0.00,WUHU216HW,2013-08-27 08:48:00,
2013-08-27 03:53:00,77.0,70.4,30.05,North,0,0.0,0.0,80,0.00,,,0.00,WUHU216HW,2013-08-27 08:53:00,
2013-08-27 03:59:00,76.9,70.2,30.06,North,0,0.0,0.0,80,0.00,,,0.00,WUHU216HW,2013-08-27 08:59:00,
2013-08-27 04:04:00,76.7,70.0,30.06,North,0,0.0,0.0,80,0.00,,,0.00,WUHU216HW,2013-08-27 09:04:00,
2013-08-27 04:09:00,76.5,69.9,30.06,North,0,0.0,0.0,80,0.00,,,0.00,WUHU216HW,2013-08-27 09:09:00,
2013-08-27 04:14:00,76.1,69.6,30.06,North,0,0.0,0.0,80,0.00,,,0.00,WUHU216HW,2013-08-27 09:14:00,
2013-08-27 04:19:00,76.0,69.8,30.06,North,0,0.0,0.0,81,0.00,,,0.00,WUHU216HW,2013-08-27 09:19:00,
2013-08-27 04:24:00,75.6,69.4,30.06,North,0,0.0,0.0,81,0.00,,,0.00,WUHU216HW,2013-08-27 09:24:00,
2013-08-27 04:29:00,75.4,69.3,30.06,North,0,0.0,0.0,81,0.00,,,0.00,WUHU216HW,2013-08-27 09:29:00,
2013-08-27 04:34:00,75.2,69.5,30.06,North,0,0.0,0.0,82,0.00,,,0.00,WUHU216HW,2013-08-27 09:34:00,
2013-08-27 04:39:00,75.2,69.5,30.06,North,0,0.0,0.0,82,0.00,,,0.00,WUHU216HW,2013-08-27 09:39:00,
2013-08-27 04:44:00,75.2,69.5,30.06,North,0,0.0,0.0,82,0.00,,,0.00,WUHU216HW,2013-08-27 09:44:00,
2013-08-27 04:49:00,75.2,69.8,30.06,North,0,0.0,0.0,83,0.00,,,0.00,WUHU216HW,2013-08-27 09:49:00,
2013-08-27 04:54:00,75.2,69.8,30.06,North,0,0.0,0.0,83,0.00,,,0.00,WUHU216HW,2013-08-27 09:54:00,
2013-08-27 04:59:00,75.2,69.8,30.06,North,0,0.0,0.0,83,0.00,,,0.00,WUHU216HW,2013-08-27 09:59:00,
2013-08-27 05:04:00,75.1,69.6,30.06,North,0,0.0,0.0,83,0.00,,,0.00,WUHU216HW,2013-08-27 10:04:00,
2013-08-27 05:09:00,74.9,69.4,30.06,North,0,0.0,0.0,83,0.00,,,0.00,WUHU216HW,2013-08-27 10:09:00,
2013-08-27 05:14:00,74.7,69.2,30.05,North,0,0.0,0.0,83,0.00,,,0.00,WUHU216HW,2013-08-27 10:14:00,
2013-08-27 05:19:00,74.5,69.0,30.06,North,0,0.0,0.0,83,0.00,,,0.00,WUHU216HW,2013-08-27 10:19:00,
2013-08-27 05:24:00,74.5,69.0,30.06,North,0,0.0,0.0,83,0.00,,,0.00,WUHU216HW,2013-08-27 10:24:00,
2013-08-27 05:29:00,74.3,69.2,30.06,North,0,0.0,0.0,84,0.00,,,0.00,WUHU216HW,2013-08-27 10:29:00,
2013-08-27 05:34:00,74.5,69.4,30.06,North,0,0.0,0.0,84,0.00,,,0.00,WUHU216HW,2013-08-27 10:34:00,
2013-08-27 05:39:00,74.5,69.4,30.06,North,0,0.0,0.0,84,0.00,,,0.00,WUHU216HW,2013-08-27 10:39:00,
2013-08-27 05:45:00,74.5,69.4,30.06,North,0,0.0,0.0,84,0.00,,,0.00,WUHU216HW,2013-08-27 10:45:00,
2013-08-27 05:50:00,74.5,69.4,30.05,North,0,0.0,0.0,84,0.00,,,0.00,WUHU216HW,2013-08-27 10:50:00,
2013-08-27 05:55:00,74.7,69.6,30.05,North,0,0.0,0.0,84,0.00,,,0.00,WUHU216HW,2013-08-27 10:55:00,
2013-08-27 06:00:00,74.7,69.6,30.06,North,0,0.0,0.0,84,0.00,,,0.00,WUHU216HW,2013-08-27 11:00:00,
2013-08-27 06:05:00,74.7,69.6,30.06,North,0,0.0,0.0,84,0.00,,,0.00,WUHU216HW,2013-08-27 11:05:00,
2013-08-27 06:10:00,74.7,69.6,30.06,North,0,0.0,0.0,84,0.00,,,0.00,WUHU216HW,2013-08-27 11:10:00,
2013-08-27 06:15:00,74.7,69.6,30.06,North,0,0.0,0.0,84,0.00,,,0.00,WUHU216HW,2013-08-27 11:15:00,
2013-08-27 06:20:00,74.7,69.6,30.06,North,0,0.0,0.0,84,0.00,,,0.00,WUHU216HW,2013-08-27 11:20:00,
2013-08-27 06:25:00,74.5,69.4,30.06,North,0,0.0,0.0,84,0.00,,,0.00,WUHU216HW,2013-08-27 11:25:00,
2013-08-27 06:30:00,74.5,69.4,30.06,North,0,0.0,0.0,84,0.00,,,0.00,WUHU216HW,2013-08-27 11:30:00,
2013-08-27 06:35:00,74.5,69.4,30.06,North,0,0.0,0.0,84,0.00,,,0.00,WUHU216HW,2013-08-27 11:35:00,
2013-08-27 06:40:00,74.3,69.2,30.06,North,0,0.0,0.0,84,0.00,,,0.00,WUHU216HW,2013-08-27 11:40:00,
2013-08-27 06:45:00,74.2,69.0,30.06,North,0,0.0,0.0,84,0.00,,,0.00,WUHU216HW,2013-08-27 11:45:00,
2013-08-27 06:50:00,74.2,69.0,30.07,North,0,0.0,0.0,84,0.00,,,0.00,WUHU216HW,2013-08-27 11:50:00,
2013-08-27 06:55:00,74.2,69.4,30.07,North,0,0.0,0.0,85,0.00,,,0.00,WUHU216HW,2013-08-27 11:55:00,
2013-08-27 07:00:00,74.2,69.4,30.07,North,0,0.0,0.0,85,0.00,,,0.00,WUHU216HW,2013-08-27 12:00:00,
2013-08-27 07:05:00,74.2,69.4,30.07,North,0,0.0,0.0,85,0.00,,,0.00,WUHU216HW,2013-08-27 12:05:00,
2013-08-27 07:11:00,74.3,69.6,30.07,North,0,0.0,0.0,85,0.00,,,0.00,WUHU216HW,2013-08-27 12:11:00,
2013-08-27 07:16:00,74.5,69.8,30.07,North,0,0.0,0.0,85,0.00,,,0.00,WUHU216HW,2013-08-27 12:16:00,
2013-08-27 07:21:00,75.1,70.3,30.07,North,0,0.0,0.0,85,0.00,,,0.00,WUHU216HW,2013-08-27 12:21:00,
2013-08-27 07:26:00,75.8,71.0,30.07,North,0,0.0,0.0,85,0.00,,,0.00,WUHU216HW,2013-08-27 12:26:00,
2013-08-27 07:31:00,76.5,71.3,30.07,North,0,0.0,0.0,84,0.00,,,0.00,WUHU216HW,2013-08-27 12:31:00,
2013-08-27 07:36:00,77.0,71.5,30.07,North,0,0.0,0.0,83,0.00,,,0.00,WUHU216HW,2013-08-27 12:36:00,
2013-08-27 07:41:00,77.6,71.6,30.07,North,0,0.0,0.0,82,0.00,,,0.00,WUHU216HW,2013-08-27 12:41:00,
2013-08-27 07:46:00,78.1,71.8,30.07,North,0,0.0,0.0,81,0.00,,,0.00,WUHU216HW,2013-08-27 12:46:00,
2013-08-27 07:51:00,78.8,72.2,30.07,North,0,0.0,0.0,80,0.00,,,0.00,WUHU216HW,2013-08-27 12:51:00,
2013-08-27 07:56:00,79.4,72.4,30.07,North,0,0.0,0.0,79,0.00,,,0.00,WUHU216HW,2013-08-27 12:56:00,
2013-08-27 08:01:00,79.7,72.3,30.07,North,0,0.0,0.0,78,0.00,,,0.00,WUHU216HW,2013-08-27 13:01:00,
2013-08-27 08:06:00,80.1,72.6,30.07,North,0,0.0,0.0,78,0.00,,,0.00,WUHU216HW,2013-08-27 13:06:00,
2013-08-27 08:11:00,80.6,72.8,30.07,North,0,0.0,0.0,77,0.00,,,0.00,WUHU216HW,2013-08-27 13:11:00,
2013-08-27 08:16:00,81.2,72.9,30.08,North,0,0.0,0.0,76,0.00,,,0.00,WUHU216HW,2013-08-27 13:16:00,
2013-08-27 08:21:00,81.5,72.8,30.08,North,0,0.0,0.0,75,0.00,,,0.00,WUHU216HW,2013-08-27 13:21:00,
2013-08-27 08:26:00,82.1,73.4,30.08,North,0,0.0,0.0,75,0.00,,,0.00,WUHU216HW,2013-08-27 13:26:00,
2013-08-27 08:31:00,82.1,73.4,30.08,North,0,0.0,0.0,75,0.00,,,0.00,WUHU216HW,2013-08-27 13:31:00,
2013-08-27 08:36:00,82.1,73.4,30.08,North,0,0.0,0.0,75,0.00,,,0.00,WUHU216HW,2013-08-27 13:36:00,
2013-08-27 08:41:00,82.4,73.7,30.09,North,0,0.0,0.0,75,0.00,,,0.00,WUHU216HW,2013-08-27 13:41:00,
2013-08-27 08:47:00,82.8,73.3,30.09,North,0,0.0,0.0,73,0.00,,,0.00,WUHU216HW,2013-08-27 13:47:00,
2013-08-27 08:52:00,83.5,74.4,30.09,North,0,0.0,0.0,74,0.00,,,0.00,WUHU216HW,2013-08-27 13:52:00,
2013-08-27 08:57:00,84.2,74.6,30.09,North,0,0.0,0.0,73,0.00,,,0.00,WUHU216HW,2013-08-27 13:57:00,
2013-08-27 09:02:00,84.4,74.4,30.08,North,0,0.0,0.0,72,0.00,,,0.00,WUHU216HW,2013-08-27 14:02:00,
2013-08-27 09:07:00,84.6,74.6,30.09,North,0,0.0,0.0,72,0.00,,,0.00,WUHU216HW,2013-08-27 14:07:00,
2013-08-27 09:12:00,85.1,74.3,30.09,North,0,0.0,0.0,70,0.00,,,0.00,WUHU216HW,2013-08-27 14:12:00,
2013-08-27 09:17:00,85.3,74.5,30.09,North,0,0.0,0.0,70,0.00,,,0.00,WUHU216HW,2013-08-27 14:17:00,
2013-08-27 09:22:00,85.5,74.3,30.08,North,0,0.0,0.0,69,0.00,,,0.00,WUHU216HW,2013-08-27 14:22:00,
2013-08-27 09:27:00,85.7,74.0,30.08,North,0,0.0,0.0,68,0.00,,,0.00,WUHU216HW,2013-08-27 14:27:00,
2013-08-27 09:32:00,86.0,74.4,30.08,North,0,0.0,0.0,68,0.00,,,0.00,WUHU216HW,2013-08-27 14:32:00,
2013-08-27 09:37:00,85.9,74.2,30.09,North,0,0.0,0.0,68,0.00,,,0.00,WUHU216HW,2013-08-27 14:37:00,
2013-08-27 09:42:00,85.9,74.2,30.09,North,0,0.0,0.0,68,0.00,,,0.00,WUHU216HW,2013-08-27 14:42:00,
2013-08-27 09:47:00,86.0,74.4,30.09,North,0,0.0,0.0,68,0.00,,,0.00,WUHU216HW,2013-08-27 14:47:00,
2013-08-27 09:52:00,86.4,74.6,30.09,North,0,0.0,0.0,68,0.00,,,0.00,WUHU216HW,2013-08-27 14:52:00,
2013-08-27 09:57:00,86.8,74.5,30.08,North,0,0.0,0.0,67,0.00,,,0.00,WUHU216HW,2013-08-27 14:57:00,
2013-08-27 10:02:00,86.8,74.1,30.09,North,0,0.0,0.0,66,0.00,,,0.00,WUHU216HW,2013-08-27 15:02:00,
2013-08-27 10:07:00,86.9,73.8,30.08,North,0,0.0,0.0,65,0.00,,,0.00,WUHU216HW,2013-08-27 15:07:00,
2013-08-27 10:12:00,87.5,74.3,30.08,North,0,0.0,0.0,65,0.00,,,0.00,WUHU216HW,2013-08-27 15:12:00,
2013-08-27 10:17:00,87.7,73.5,30.08,North,0,0.0,0.0,63,0.00,,,0.00,WUHU216HW,2013-08-27 15:17:00,
2013-08-27 10:23:00,87.8,73.7,30.08,North,0,0.0,0.0,63,0.00,,,0.00,WUHU216HW,2013-08-27 15:23:00,
2013-08-27 10:28:00,87.8,73.3,30.08,North,0,0.0,0.0,62,0.00,,,0.00,WUHU216HW,2013-08-27 15:28:00,
2013-08-27 10:33:00,88.0,73.0,30.08,North,0,0.0,0.0,61,0.00,,,0.00,WUHU216HW,2013-08-27 15:33:00,
2013-08-27 10:38:00,87.8,73.3,30.08,North,0,0.0,0.0,62,0.00,,,0.00,WUHU216HW,2013-08-27 15:38:00,
2013-08-27 10:43:00,88.2,73.2,30.08,North,0,0.0,0.0,61,0.00,,,0.00,WUHU216HW,2013-08-27 15:43:00,
2013-08-27 10:48:00,88.4,73.8,30.07,North,0,0.0,0.0,62,0.00,,,0.00,WUHU216HW,2013-08-27 15:48:00,
2013-08-27 10:53:00,88.7,73.2,30.08,North,0,0.0,0.0,60,0.00,,,0.00,WUHU216HW,2013-08-27 15:53:00,
2013-08-27 10:58:00,88.9,72.3,30.08,North,0,0.0,0.0,58,0.00,,,0.00,WUHU216HW,2013-08-27 15:58:00,
2013-08-27 11:03:00,89.1,73.5,30.08,North,0,0.0,0.0,60,0.00,,,0.00,WUHU216HW,2013-08-27 16:03:00,
2013-08-27 11:08:00,89.3,72.5,30.08,North,0,0.0,0.0,58,0.00,,,0.00,WUHU216HW,2013-08-27 16:08:00,
2013-08-27 11:13:00,89.3,72.5,30.08,North,0,0.0,0.0,58,0.00,,,0.00,WUHU216HW,2013-08-27 16:13:00,
2013-08-27 11:18:00,89.6,72.4,30.07,North,0,0.0,0.0,57,0.00,,,0.00,WUHU216HW,2013-08-27 16:18:00,
2013-08-27 11:23:00,90.2,72.3,30.07,North,0,0.0,0.0,56,0.00,,,0.00,WUHU216HW,2013-08-27 16:23:00,
2013-08-27 11:28:00,90.5,71.6,30.07,North,0,0.0,0.0,54,0.00,,,0.00,WUHU216HW,2013-08-27 16:28:00,
2013-08-27 11:33:00,90.7,71.7,30.07,North,0,0.0,0.0,54,0.00,,,0.00,WUHU216HW,2013-08-27 16:33:00,
2013-08-27 11:38:00,91.1,71.5,30.07,North,0,0.0,0.0,53,0.00,,,0.00,WUHU216HW,2013-08-27 16:38:00,
2013-08-27 11:43:00,91.1,70.9,30.07,North,0,0.0,0.0,52,0.00,,,0.00,WUHU216HW,2013-08-27 16:43:00,
2013-08-27 11:48:00,91.3,71.1,30.06,North,0,0.0,0.0,52,0.00,,,0.00,WUHU216HW,2013-08-27 16:48:00,
2013-08-27 11:53:00,91.4,70.7,30.06,North,0,0.0,0.0,51,0.00,,,0.00,WUHU216HW,2013-08-27 16:53:00,
2013-08-27 11:58:00,91.3,69.4,30.06,North,0,0.0,0.0,49,0.00,,,0.00,WUHU216HW,2013-08-27 16:58:00,
2013-08-27 12:04:00,91.4,69.6,30.06,North,0,0.0,0.0,49,0.00,,,0.00,WUHU216HW,2013-08-27 17:04:00,
2013-08-27 12:09:00,92.0,70.7,30.06,North,0,0.0,0.0,50,0.00,,,0.00,WUHU216HW,2013-08-27 17:09:00,
2013-08-27 12:14:00,92.3,69.0,30.05,North,0,0.0,0.0,47,0.00,,,0.00,WUHU216HW,2013-08-27 17:14:00,
2013-08-27 12:19:00,92.3,68.4,30.05,North,0,0.0,0.0,46,0.00,,,0.00,WUHU216HW,2013-08-27 17:19:00,
2013-08-27 12:24:00,92.2,68.2,30.06,North,0,0.0,0.0,46,0.00,,,0.00,WUHU216HW,2013-08-27 17:24:00,
2013-08-27 12:29:00,92.2,68.2,30.05,North,0,0.0,0.0,46,0.00,,,0.00,WUHU216HW,2013-08-27 17:29:00,
2013-08-27 12:34:00,92.2,68.2,30.05,North,0,0.0,0.0,46,0.00,,,0.00,WUHU216HW,2013-08-27 17:34:00,
2013-08-27 12:39:00,92.5,68.0,30.05,North,0,0.0,0.0,45,0.00,,,0.00,WUHU216HW,2013-08-27 17:39:00,
2013-08-27 12:44:00,92.5,67.3,30.05,North,0,0.0,0.0,44,0.00,,,0.00,WUHU216HW,2013-08-27 17:44:00,
2013-08-27 12:49:00,92.3,66.5,30.05,North,0,0.0,0.0,43,0.00,,,0.00,WUHU216HW,2013-08-27 17:49:00,
2013-08-27 12:54:00,92.2,67.6,30.04,North,0,0.0,0.0,45,0.00,,,0.00,WUHU216HW,2013-08-27 17:54:00,
2013-08-27 12:59:00,92.3,67.8,30.04,North,0,0.0,0.0,45,0.00,,,0.00,WUHU216HW,2013-08-27 17:59:00,
2013-08-27 13:04:00,92.7,68.1,30.04,North,0,0.0,0.0,45,0.00,,,0.00,WUHU216HW,2013-08-27 18:04:00,
2013-08-27 13:09:00,92.9,68.2,30.03,North,0,0.0,0.0,45,0.00,,,0.00,WUHU216HW,2013-08-27 18:09:00,
2013-08-27 13:14:00,93.2,68.6,30.03,North,0,0.0,0.0,45,0.00,,,0.00,WUHU216HW,2013-08-27 18:14:00,
2013-08-27 13:19:00,93.6,68.3,30.03,North,0,0.0,0.0,44,0.00,,,0.00,WUHU216HW,2013-08-27 18:19:00,
2013-08-27 13:24:00,93.6,67.6,30.02,North,0,0.0,0.0,43,0.00,,,0.00,WUHU216HW,2013-08-27 18:24:00,
2013-08-27 13:29:00,93.6,68.3,30.02,North,0,0.0,0.0,44,0.00,,,0.00,WUHU216HW,2013-08-27 18:29:00,
2013-08-27 13:34:00,93.6,69.0,30.02,North,0,0.0,0.0,45,0.00,,,0.00,WUHU216HW,2013-08-27 18:34:00,
2013-08-27 13:40:00,94.0,69.3,30.02,North,0,0.0,0.0,45,0.00,,,0.00,WUHU216HW,2013-08-27 18:40:00,
2013-08-27 13:45:00,94.0,68.6,30.02,North,0,0.0,0.0,44,0.00,,,0.00,WUHU216HW,2013-08-27 18:45:00,
2013-08-27 13:50:00,94.1,69.5,30.02,North,0,0.0,0.0,45,0.00,,,0.00,WUHU216HW,2013-08-27 18:50:00,
2013-08-27 13:55:00,94.0,69.3,30.02,North,0,0.0,0.0,45,0.00,,,0.00,WUHU216HW,2013-08-27 18:55:00,
2013-08-27 14:00:00,94.1,69.5,30.02,North,0,0.0,0.0,45,0.00,,,0.00,WUHU216HW,2013-08-27 19:00:00,
2013-08-27 14:05:00,94.1,68.8,30.02,North,0,0.0,0.0,44,0.00,,,0.00,WUHU216HW,2013-08-27 19:05:00,
2013-08-27 14:10:00,94.7,68.6,30.02,North,0,0.0,0.0,43,0.00,,,0.00,WUHU216HW,2013-08-27 19:10:00,
2013-08-27 14:15:00,94.7,68.0,30.01,North,0,0.0,0.0,42,0.00,,,0.00,WUHU216HW,2013-08-27 19:15:00,
2013-08-27 14:20:00,94.7,68.0,30.01,North,0,0.0,0.0,42,0.00,,,0.00,WUHU216HW,2013-08-27 19:20:00,
2013-08-27 14:25:00,94.9,68.1,30.01,North,0,0.0,0.0,42,0.00,,,0.00,WUHU216HW,2013-08-27 19:25:00,
2013-08-27 14:30:00,94.7,68.6,30.01,North,0,0.0,0.0,43,0.00,,,0.00,WUHU216HW,2013-08-27 19:30:00,
2013-08-27 14:35:00,95.0,67.6,30.01,North,0,0.0,0.0,41,0.00,,,0.00,WUHU216HW,2013-08-27 19:35:00,
2013-08-27 14:40:00,95.2,67.8,30.01,North,0,0.0,0.0,41,0.00,,,0.00,WUHU216HW,2013-08-27 19:40:00,
2013-08-27 14:45:00,95.2,68.5,30.01,North,0,0.0,0.0,42,0.00,,,0.00,WUHU216HW,2013-08-27 19:45:00,
2013-08-27 14:50:00,95.4,68.0,30.01,North,0,0.0,0.0,41,0.00,,,0.00,WUHU216HW,2013-08-27 19:50:00,
2013-08-27 14:55:00,95.2,67.8,30.00,North,0,0.0,0.0,41,0.00,,,0.00,WUHU216HW,2013-08-27 19:55:00,
2013-08-27 15:01:00,95.2,69.1,30.00,North,0,0.0,0.0,43,0.00,,,0.00,WUHU216HW,2013-08-27 20:01:00,
2013-08-27 15:06:00,95.4,68.6,30.00,North,0,0.0,0.0,42,0.00,,,0.00,WUHU216HW,2013-08-27 20:06:00,
2013-08-27 15:11:00,95.4,68.6,30.00,North,0,0.0,0.0,42,0.00,,,0.00,WUHU216HW,2013-08-27 20:11:00,
2013-08-27 15:16:00,95.4,68.6,30.00,North,0,0.0,0.0,42,0.00,,,0.00,WUHU216HW,2013-08-27 20:16:00,
2013-08-27 15:21:00,95.2,68.5,29.99,North,0,0.0,0.0,42,0.00,,,0.00,WUHU216HW,2013-08-27 20:21:00,
2013-08-27 15:26:00,95.0,68.3,29.99,North,0,0.0,0.0,42,0.00,,,0.00,WUHU216HW,2013-08-27 20:26:00,
2013-08-27 15:31:00,95.2,68.5,29.99,North,0,0.0,0.0,42,0.00,,,0.00,WUHU216HW,2013-08-27 20:31:00,
2013-08-27 15:36:00,94.7,68.0,29.99,North,0,0.0,0.0,42,0.00,,,0.00,WUHU216HW,2013-08-27 20:36:00,
2013-08-27 15:41:00,94.9,67.5,29.99,North,0,0.0,0.0,41,0.00,,,0.00,WUHU216HW,2013-08-27 20:41:00,
2013-08-27 15:46:00,95.0,67.6,29.99,North,0,0.0,0.0,41,0.00,,,0.00,WUHU216HW,2013-08-27 20:46:00,
2013-08-27 15:51:00,95.0,68.3,29.99,North,0,0.0,0.0,42,0.00,,,0.00,WUHU216HW,2013-08-27 20:51:00,
2013-08-27 15:56:00,94.7,68.0,29.99,North,0,0.0,0.0,42,0.00,,,0.00,WUHU216HW,2013-08-27 20:56:00,
2013-08-27 16:01:00,94.3,67.0,29.99,North,0,0.0,0.0,41,0.00,,,0.00,WUHU216HW,2013-08-27 21:01:00,
2013-08-27 16:06:00,94.0,67.3,29.99,North,0,0.0,0.0,42,0.00,,,0.00,WUHU216HW,2013-08-27 21:06:00,
2013-08-27 16:11:00,94.0,67.3,29.99,North,0,0.0,0.0,42,0.00,,,0.00,WUHU216HW,2013-08-27 21:11:00,
2013-08-27 16:16:00,94.0,67.3,29.99,North,0,0.0,0.0,42,0.00,,,0.00,WUHU216HW,2013-08-27 21:16:00,
2013-08-27 16:21:00,94.3,67.6,29.99,North,0,0.0,0.0,42,0.00,,,0.00,WUHU216HW,2013-08-27 21:21:00,
2013-08-27 16:27:00,94.3,67.0,29.99,North,0,0.0,0.0,41,0.00,,,0.00,WUHU216HW,2013-08-27 21:27:00,
2013-08-27 16:32:00,94.0,67.3,29.99,North,0,0.0,0.0,42,0.00,,,0.00,WUHU216HW,2013-08-27 21:32:00,
2013-08-27 16:37:00,93.6,67.0,29.98,North,0,0.0,0.0,42,0.00,,,0.00,WUHU216HW,2013-08-27 21:37:00,
2013-08-27 16:42:00,93.2,67.3,29.98,North,0,0.0,0.0,43,0.00,,,0.00,WUHU216HW,2013-08-27 21:42:00,
2013-08-27 16:47:00,93.1,67.8,29.98,North,0,0.0,0.0,44,0.00,,,0.00,WUHU216HW,2013-08-27 21:47:00,
2013-08-27 16:52:00,93.1,67.8,29.98,North,0,0.0,0.0,44,0.00,,,0.00,WUHU216HW,2013-08-27 21:52:00,
2013-08-27 16:57:00,93.2,67.3,29.98,North,0,0.0,0.0,43,0.00,,,0.00,WUHU216HW,2013-08-27 21:57:00,
2013-08-27 17:02:00,92.9,67.6,29.99,North,0,0.0,0.0,44,0.00,,,0.00,WUHU216HW,2013-08-27 22:02:00,
2013-08-27 17:07:00,92.5,67.3,29.99,North,0,0.0,0.0,44,0.00,,,0.00,WUHU216HW,2013-08-27 22:07:00,
2013-08-27 17:12:00,92.5,67.3,29.99,North,0,0.0,0.0,44,0.00,,,0.00,WUHU216HW,2013-08-27 22:12:00,
2013-08-27 17:17:00,92.7,68.1,29.99,North,0,0.0,0.0,45,0.00,,,0.00,WUHU216HW,2013-08-27 22:17:00,
2013-08-27 17:22:00,92.9,68.2,29.99,North,0,0.0,0.0,45,0.00,,,0.00,WUHU216HW,2013-08-27 22:22:00,
2013-08-27 17:27:00,93.1,68.4,29.98,North,0,0.0,0.0,45,0.00,,,0.00,WUHU216HW,2013-08-27 22:27:00,
2013-08-27 17:32:00,93.1,67.8,29.99,North,0,0.0,0.0,44,0.00,,,0.00,WUHU216HW,2013-08-27 22:32:00,
2013-08-27 17:37:00,93.1,68.4,29.98,North,0,0.0,0.0,45,0.00,,,0.00,WUHU216HW,2013-08-27 22:37:00,
2013-08-27 17:42:00,93.2,68.6,29.98,North,0,0.0,0.0,45,0.00,,,0.00,WUHU216HW,2013-08-27 22:42:00,
2013-08-27 17:47:00,93.1,68.4,29.98,North,0,0.0,0.0,45,0.00,,,0.00,WUHU216HW,2013-08-27 22:47:00,
2013-08-27 17:52:00,93.2,68.6,29.98,North,0,0.0,0.0,45,0.00,,,0.00,WUHU216HW,2013-08-27 22:52:00,
2013-08-27 17:57:00,93.4,68.1,29.98,North,0,0.0,0.0,44,0.00,,,0.00,WUHU216HW,2013-08-27 22:57:00,
2013-08-27 18:03:00,93.6,69.0,29.98,North,0,0.0,0.0,45,0.00,,,0.00,WUHU216HW,2013-08-27 23:03:00,
2013-08-27 18:08:00,93.2,68.6,29.98,North,0,0.0,0.0,45,0.00,,,0.00,WUHU216HW,2013-08-27 23:08:00,
2013-08-27 18:13:00,93.1,68.4,29.98,North,0,0.0,0.0,45,0.00,,,0.00,WUHU216HW,2013-08-27 23:13:00,
2013-08-27 18:18:00,92.9,69.0,29.98,North,0,0.0,0.0,46,0.00,,,0.00,WUHU216HW,2013-08-27 23:18:00,
2013-08-27 18:23:00,92.5,68.6,29.97,North,0,0.0,0.0,46,0.00,,,0.00,WUHU216HW,2013-08-27 23:23:00,
2013-08-27 18:28:00,92.3,68.4,29.97,North,0,0.0,0.0,46,0.00,,,0.00,WUHU216HW,2013-08-27 23:28:00,
2013-08-27 18:33:00,91.8,68.6,29.97,North,0,0.0,0.0,47,0.00,,,0.00,WUHU216HW,2013-08-27 23:33:00,
2013-08-27 18:38:00,91.4,68.2,29.97,North,0,0.0,0.0,47,0.00,,,0.00,WUHU216HW,2013-08-27 23:38:00,
2013-08-27 18:43:00,91.3,68.8,29.97,North,0,0.0,0.0,48,0.00,,,0.00,WUHU216HW,2013-08-27 23:43:00,
2013-08-27 18:48:00,91.1,68.6,29.97,North,0,0.0,0.0,48,0.00,,,0.00,WUHU216HW,2013-08-27 23:48:00,
2013-08-27 18:53:00,91.1,68.6,29.98,North,0,0.0,0.0,48,0.00,,,0.00,WUHU216HW,2013-08-27 23:53:00,
2013-08-27 18:58:00,90.9,69.0,29.97,North,0,0.0,0.0,49,0.00,,,0.00,WUHU216HW,2013-08-27 23:58:00,
2013-08-27 19:03:00,90.7,69.0,29.98,North,0,0.0,0.0,49,0.00,,,0.00,WUHU216HW,2013-08-28 00:03:00,
2013-08-27 19:08:00,90.4,69.2,29.97,North,0,0.0,0.0,50,0.00,,,0.00,WUHU216HW,2013-08-28 00:08:00,
2013-08-27 19:13:00,90.0,69.0,29.98,North,0,0.0,0.0,50,0.00,,,0.00,WUHU216HW,2013-08-28 00:13:00,
2013-08-27 19:18:00,89.6,68.6,29.98,North,0,0.0,0.0,50,0.00,,,0.00,WUHU216HW,2013-08-28 00:18:00,
2013-08-27 19:23:00,89.3,68.8,29.98,North,0,0.0,0.0,51,0.00,,,0.00,WUHU216HW,2013-08-28 00:23:00,
2013-08-27 19:29:00,88.7,68.3,29.98,North,0,0.0,0.0,51,0.00,,,0.00,WUHU216HW,2013-08-28 00:29:00,
2013-08-27 19:34:00,88.2,68.4,29.98,North,0,0.0,0.0,52,0.00,,,0.00,WUHU216HW,2013-08-28 00:34:00,
2013-08-27 19:39:00,87.8,68.6,29.98,North,0,0.0,0.0,53,0.00,,,0.00,WUHU216HW,2013-08-28 00:39:00,
2013-08-27 19:44:00,87.7,68.4,29.98,North,0,0.0,0.0,53,0.00,,,0.00,WUHU216HW,2013-08-28 00:44:00,
2013-08-27 19:49:00,87.3,68.6,29.98,North,0,0.0,0.0,54,0.00,,,0.00,WUHU216HW,2013-08-28 00:49:00,
2013-08-27 19:54:00,86.9,68.3,29.98,North,0,0.0,0.0,54,0.00,,,0.00,WUHU216HW,2013-08-28 00:54:00,
2013-08-27 19:59:00,86.8,68.1,29.98,North,0,0.0,0.0,54,0.00,,,0.00,WUHU216HW,2013-08-28 00:59:00,
2013-08-27 20:04:00,86.8,68.1,29.98,North,0,0.0,0.0,54,0.00,,,0.00,WUHU216HW,2013-08-28 01:04:00,
2013-08-27 20:09:00,86.8,68.1,29.98,North,0,0.0,0.0,54,0.00,,,0.00,WUHU216HW,2013-08-28 01:09:00,
2013-08-27 20:14:00,86.8,68.1,29.99,North,0,0.0,0.0,54,0.00,,,0.00,WUHU216HW,2013-08-28 01:14:00,
2013-08-27 20:19:00,86.0,68.5,29.99,North,0,0.0,0.0,56,0.00,,,0.00,WUHU216HW,2013-08-28 01:19:00,
2013-08-27 20:24:00,85.7,68.7,29.99,North,0,0.0,0.0,57,0.00,,,0.00,WUHU216HW,2013-08-28 01:24:00,
2013-08-27 20:29:00,85.3,68.9,29.99,North,0,0.0,0.0,58,0.00,,,0.00,WUHU216HW,2013-08-28 01:29:00,
2013-08-27 20:34:00,85.0,68.6,29.99,North,0,0.0,0.0,58,0.00,,,0.00,WUHU216HW,2013-08-28 01:34:00,
2013-08-27 20:39:00,84.6,68.8,29.99,North,0,0.0,0.0,59,0.00,,,0.00,WUHU216HW,2013-08-28 01:39:00,
2013-08-27 20:44:00,84.2,68.4,29.99,North,0,0.0,0.0,59,0.00,,,0.00,WUHU216HW,2013-08-28 01:44:00,
2013-08-27 20:49:00,84.1,68.8,30.00,North,0,0.0,0.0,60,0.00,,,0.00,WUHU216HW,2013-08-28 01:49:00,
2013-08-27 20:54:00,83.7,68.4,30.00,North,0,0.0,0.0,60,0.00,,,0.00,WUHU216HW,2013-08-28 01:54:00,
2013-08-27 20:59:00,83.2,67.3,30.00,North,0,0.0,0.0,59,0.00,,,0.00,WUHU216HW,2013-08-28 01:59:00,
2013-08-27 21:05:00,82.8,67.5,30.00,North,0,0.0,0.0,60,0.00,,,0.00,WUHU216HW,2013-08-28 02:05:00,
2013-08-27 21:10:00,82.3,67.4,30.00,North,0,0.0,0.0,61,0.00,,,0.00,WUHU216HW,2013-08-28 02:10:00,
2013-08-27 21:15:00,82.1,67.7,30.00,North,0,0.0,0.0,62,0.00,,,0.00,WUHU216HW,2013-08-28 02:15:00,
2013-08-27 21:20:00,82.3,67.9,30.00,North,0,0.0,0.0,62,0.00,,,0.00,WUHU216HW,2013-08-28 02:20:00,
2013-08-27 21:25:00,82.3,68.3,30.01,North,0,0.0,0.0,63,0.00,,,0.00,WUHU216HW,2013-08-28 02:25:00,
2013-08-27 21:30:00,82.4,68.0,30.00,North,0,0.0,0.0,62,0.00,,,0.00,WUHU216HW,2013-08-28 02:30:00,
2013-08-27 21:35:00,82.4,68.0,30.01,North,0,0.0,0.0,62,0.00,,,0.00,WUHU216HW,2013-08-28 02:35:00,
2013-08-27 21:40:00,82.3,68.3,30.00,North,0,0.0,0.0,63,0.00,,,0.00,WUHU216HW,2013-08-28 02:40:00,
2013-08-27 21:45:00,82.1,68.1,30.01,North,0,0.0,0.0,63,0.00,,,0.00,WUHU216HW,2013-08-28 02:45:00,
2013-08-27 21:50:00,81.9,68.1,30.01,North,0,0.0,0.0,63,0.00,,,0.00,WUHU216HW,2013-08-28 02:50:00,
2013-08-27 21:55:00,81.7,68.3,30.01,North,0,0.0,0.0,64,0.00,,,0.00,WUHU216HW,2013-08-28 02:55:00,
2013-08-27 22:00:00,81.5,68.1,30.01,North,0,0.0,0.0,64,0.00,,,0.00,WUHU216HW,2013-08-28 03:00:00,
2013-08-27 22:05:00,81.5,68.1,30.01,North,0,0.0,0.0,64,0.00,,,0.00,WUHU216HW,2013-08-28 03:05:00,
2013-08-27 22:10:00,81.4,68.0,30.01,North,0,0.0,0.0,64,0.00,,,0.00,WUHU216HW,2013-08-28 03:10:00,
2013-08-27 22:16:00,81.4,68.0,30.01,North,0,0.0,0.0,64,0.00,,,0.00,WUHU216HW,2013-08-28 03:16:00,
2013-08-27 22:21:00,81.2,67.8,30.01,North,0,0.0,0.0,64,0.00,,,0.00,WUHU216HW,2013-08-28 03:21:00,
2013-08-27 22:26:00,81.0,67.7,30.01,North,0,0.0,0.0,64,0.00,,,0.00,WUHU216HW,2013-08-28 03:26:00,
2013-08-27 22:31:00,80.8,67.5,30.01,North,0,0.0,0.0,64,0.00,,,0.00,WUHU216HW,2013-08-28 03:31:00,
2013-08-27 22:36:00,80.5,67.1,30.01,North,0,0.0,0.0,64,0.00,,,0.00,WUHU216HW,2013-08-28 03:36:00,
2013-08-27 22:41:00,80.1,67.2,30.01,North,0,0.0,0.0,65,0.00,,,0.00,WUHU216HW,2013-08-28 03:41:00,
2013-08-27 22:46:00,79.7,66.9,30.01,North,0,0.0,0.0,65,0.00,,,0.00,WUHU216HW,2013-08-28 03:46:00,
2013-08-27 22:51:00,79.4,66.6,30.01,North,0,0.0,0.0,65,0.00,,,0.00,WUHU216HW,2013-08-28 03:51:00,
2013-08-27 22:56:00,79.0,66.7,30.01,North,0,0.0,0.0,66,0.00,,,0.00,WUHU216HW,2013-08-28 03:56:00,
2013-08-27 23:01:00,78.5,66.2,30.01,North,0,0.0,0.0,66,0.00,,,0.00,WUHU216HW,2013-08-28 04:01:00,
2013-08-27 23:06:00,78.3,66.4,30.01,North,0,0.0,0.0,67,0.00,,,0.00,WUHU216HW,2013-08-28 04:06:00,
2013-08-27 23:11:00,78.3,66.4,30.01,North,0,0.0,0.0,67,0.00,,,0.00,WUHU216HW,2013-08-28 04:11:00,
2013-08-27 23:16:00,78.5,67.1,30.01,North,0,0.0,0.0,68,0.00,,,0.00,WUHU216HW,2013-08-28 04:16:00,
2013-08-27 23:21:00,78.7,67.2,30.01,North,0,0.0,0.0,68,0.00,,,0.00,WUHU216HW,2013-08-28 04:21:00,
2013-08-27 23:26:00,78.8,67.3,30.01,North,0,0.0,0.0,68,0.00,,,0.00,WUHU216HW,2013-08-28 04:26:00,
2013-08-27 23:31:00,78.8,67.3,30.01,North,0,0.0,0.0,68,0.00,,,0.00,WUHU216HW,2013-08-28 04:31:00,
2013-08-27 23:36:00,78.8,67.3,30.00,North,0,0.0,0.0,68,0.00,,,0.00,WUHU216HW,2013-08-28 04:36:00,
2013-08-27 23:42:00,78.8,67.3,30.00,North,0,0.0,0.0,68,0.00,,,0.00,WUHU216HW,2013-08-28 04:42:00,
2013-08-27 23:47:00,78.8,67.3,30.00,North,0,0.0,0.0,68,0.00,,,0.00,WUHU216HW,2013-08-28 04:47:00,
2013-08-27 23:52:00,78.7,67.2,30.00,North,0,0.0,0.0,68,0.00,,,0.00,WUHU216HW,2013-08-28 04:52:00,
2013-08-27 23:57:00,78.7,67.2,30.00,North,0,0.0,0.0,68,0.00,,,0.00,WUHU216HW,2013-08-28 04:57:00,